This is the latest recevied weather packets stored in our database for station/object N9DMT-13. If no packets are shown the sender has not sent any weather packets the latest 10 day(s).
| Time | Temp. | Humidity | Pressure | Rain* | Wind** | Luminosity | Snow |
|---|---|---|---|---|---|---|---|
| 1777511825 | 7.78° C | 56% | 984.1 hPa | 0 mm | - | - | - |
| 1777511524 | 8.89° C | 50% | 984.2 hPa | 0 mm | - | - | - |
| 1777511223 | 8.89° C | 49% | 984 hPa | 0 mm | - | - | - |
| 1777510923 | 8.89° C | 48% | 984 hPa | 0 mm | - | - | - |
| 1777510622 | 9.44° C | 50% | 984.1 hPa | 0 mm | - | - | - |
| 1777510321 | 10° C | 44% | 983.9 hPa | 0 mm | - | - | - |
| 1777510021 | 10° C | 43% | 983.8 hPa | 0 mm | - | - | - |
| 1777509720 | 10° C | 44% | 983.9 hPa | 0 mm | - | - | - |
| 1777509419 | 10° C | 42% | 983.9 hPa | 0 mm | - | - | - |
| 1777509118 | 10.56° C | 43% | 983.7 hPa | 0 mm | - | - | - |
| 1777508818 | 10.56° C | 40% | 983.7 hPa | 0 mm | - | - | - |
| 1777508517 | 11.11° C | 44% | 983.7 hPa | 0 mm | - | - | - |
| 1777508217 | 11.11° C | 39% | 983.7 hPa | 0 mm | - | - | - |
| 1777507916 | 11.11° C | 39% | 983.8 hPa | 0 mm | - | - | - |
| 1777507615 | 11.11° C | 39% | 983.8 hPa | 0 mm | - | - | - |
| 1777507315 | 11.11° C | 38% | 983.8 hPa | 0 mm | - | - | - |
| 1777507014 | 11.11° C | 39% | 983.8 hPa | 0 mm | - | - | - |
| 1777506713 | 11.11° C | 41% | 983.7 hPa | 0 mm | - | - | - |
| 1777506412 | 11.11° C | 38% | 983.7 hPa | 0 mm | - | - | - |
| 1777506111 | 11.11° C | 39% | 983.8 hPa | 0 mm | - | - | - |
| 1777505810 | 11.67° C | 39% | 983.7 hPa | 0 mm | - | - | - |
| 1777505509 | 11.67° C | 40% | 983.8 hPa | 0 mm | - | - | - |
| 1777505208 | 11.67° C | 39% | 983.6 hPa | 0 mm | - | - | - |
| 1777504907 | 11.67° C | 39% | 983.8 hPa | 0 mm | - | - | - |
| 1777504607 | 11.67° C | 38% | 983.9 hPa | 0 mm | - | - | - |
* Rain latest hour (hover to see other rain measurements)
** Current wind speed in m/s (hover to see current wind gust speed)